Location: Belloy
(55.7522°N, 118.2333°W)
Time: 23:01:57
(UTC+00:00)

Envisat - Pass Details

Date: 02 December 2021
Orbit: 764 x 766 km, 98.2° (Epoch: 27 January)

Event Time Altitude Azimuth Distance (km) Brightness Sun altitude
Rises 13:23:45 0° 15° (NNE) 3,250 6.3 -20.7°
Reaches altitude 10° 13:26:04 10° 14° (NNE) 2,319 5.5 -20.3°
Maximum altitude 13:31:11 80° 288° (WNW) 785 2.9 -19.6°
Drops below altitude 10° 13:36:15 10° 202° (SSW) 2,302 5.4 -18.9°
Sets 13:38:33 0° 202° (SSW) 3,223 6.1 -18.6°
